Location: Tel Aviv
(32.0670°N, 34.7670°E)
Time: 08:53:48
(UTC+02:00)

Transit 2A Rocket - Visible Passes

Search period start: 07 December 2023 00:00
Search period end: 17 December 2023 00:00
Orbit: 593 x 903 km, 66.7° (Epoch: 06 December)

Date Brightness Start Highest point End Pass type
(mag) Time Alt. Az. Time Alt. Az. Time Alt. Az.
07 Dec 7.4 04:21:49 10° NNE 04:23:21 11° NE 04:24:53 10° ENE visible
07 Dec 4.8 06:01:39 10° NNW 06:06:03 60° WSW 06:10:45 10° SSE visible
08 Dec 5.0 05:18:02 10° NNW 05:22:26 64° ENE 05:27:10 10° SE visible
09 Dec 6.3 04:35:58 17° N 04:38:46 31° ENE 04:42:57 10° ESE visible
09 Dec 6.7 19:03:39 10° SSW 19:05:24 22° SSW 19:05:24 22° SSW visible
10 Dec 7.0 03:54:06 16° NE 03:54:58 16° NE 03:57:52 10° E visible
10 Dec 5.2 05:33:58 14° NW 05:37:28 41° WSW 05:41:59 10° S visible
10 Dec 5.8 18:20:33 10° S 18:23:44 29° SE 18:23:44 29° SE visible
11 Dec 4.5 04:52:09 38° NNW 04:53:54 87° WSW 04:58:43 10° SSE visible
11 Dec 6.3 17:38:22 10° SSE 17:41:29 17° ESE 17:42:03 17° E visible
11 Dec 6.6 19:19:11 10° SW 19:21:55 28° WSW 19:21:55 28° WSW visible
12 Dec 5.6 04:10:23 44° ENE 04:10:23 44° ENE 04:14:49 10° SE visible
12 Dec 6.5 05:50:15 11° W 05:52:22 14° WSW 05:54:46 10° SW visible
12 Dec 4.6 18:35:07 10° SSW 18:39:59 78° WNW 18:40:12 76° NNW visible
13 Dec 7.3 03:28:40 17° E 03:28:40 17° E 03:30:14 10° ESE visible
13 Dec 5.6 05:08:33 28° WSW 05:08:53 28° WSW 05:13:01 10° S visible
13 Dec 4.9 17:51:41 10° S 17:56:23 50° ESE 17:58:25 29° NE visible
13 Dec 7.4 19:36:31 10° W 19:38:17 14° WNW 19:38:17 14° WNW visible
14 Dec 5.6 04:26:52 39° S 04:26:52 39° S 04:30:06 10° SSE visible
14 Dec 5.9 17:08:57 10° SSE 17:12:51 24° ESE 17:16:32 10° NE visible
14 Dec 6.4 18:51:09 10° WSW 18:55:09 27° WNW 18:56:26 23° NNW visible
15 Dec 7.1 03:45:13 18° SE 03:45:13 18° SE 03:46:31 10° SSE visible
15 Dec 5.3 18:06:44 10° SW 18:11:26 53° WNW 18:14:32 19° N visible
16 Dec 7.1 04:43:26 11° SSW 04:43:26 11° SSW 04:43:45 10° SSW visible
16 Dec 4.6 17:22:59 10° SSW 17:27:48 73° ESE 17:32:17 10° NNE visible
